User: anonymous   Login
Location: Eckley
(40.9930°N, 75.8630°W)
Time: 03:21:44
(UTC-04:00)
Language:

Cosmos 2221 Rocket - Orbit

View from above orbital plane
View from above orbital plane
View from above satellite
View from above satellite

Ground track
Ground track

The orbit data is extracted from the following two-line orbital elements,

1 22237U 92080B   15240.06812450  .00000170  00000-0  20278-4 0  9994
2 22237 082.5136 010.7956 0019348 196.4598 277.6706 14.78171169226064
Epoch (UTC): 28 August 2015 01:38:05
Eccentricity: 0.0019348
inclination: 82.5136°
perigee height: 621 km
apogee height: 648 km
right ascension of ascending node: 10.7956°
argument of perigee: 196.4598°
revolutions per day: 14.78171169
mean anomaly at epoch: 277.6706°
orbit number at epoch: 22606

The dashed part of the orbit path shows where the satellite is in the earth's shadow,  

DLR